Wind_Speed
20 20 20 19 18 19 20 19 18 15 15 14 12 12 13 15 15 6 4 4 4 6 4 6 4 6 8 7 7 3 1 4 3 2 10 13 15 13 10 19 10 2 9 11 31
22 22 20 20 19 19 20 19 19 16 13 13 15 13 12 14 11 7 5 5 7 5 5 5 3 5 3 3 1 3 1 3 3 5 12 17 23 17 11 16 14 13 12 24 29
24 23 21 21 20 20 21 20 18 15 13 13 13 13 10 11 2 5 4 12 8 5 5 4 4 3 3 3 1 3 4 2 5 5 4 18 20 17 20 16 23 20 15 18 26
24 23 21 21 21 21 23 22 18 13 12 12 13 9 9 3 5 2 4 10 9 6 6 4 3 3 3 4 5 1 9 7 6 2 3 9 18 18 18 11 21 19 17 9 10
26 25 21 21 21 22 23 22 17 13 11 11 10 7 2 2 6 3 5 9 9 8 6 2 2 5 3 4 9 6 6 10 7 11 5 5 15 11 14 19 19 18 15 13 13
27 24 23 23 22 24 23 22 13 11 9 9 7 6 2 2 3 3 7 12 11 11 7 5 4 2 2 4 4 7 7 12 8 14 10 16 21 12 16 19 18 17 15 13 14
29 25 24 24 24 25 24 20 11 9 7 7 5 2 1 8 3 5 5 9 14 17 2 9 10 2 7 2 10 2 4 7 1 17 6 6 13 10 18 18 17 15 15 14 10
30 27 27 25 27 26 24 16 9 7 5 6 6 1 6 5 4 8 5 5 10 11 14 15 3 4 5 4 2 7 4 1 8 5 13 9 8 14 7 15 15 14 13 12 10
30 30 28 27 29 28 22 13 7 4 4 5 3 2 7 7 6 9 10 6 11 13 17 13 5 2 3 3 2 3 4 8 1 4 11 7 3 4 5 7 12 11 8 9 12
30 31 29 27 28 28 19 12 5 2 1 1 2 4 6 4 4 12 13 14 4 2 6 2 5 2 2 3 5 5 3 1 9 10 16 12 4 6 4 7 9 5 8 10 14
30 32 31 28 28 25 18 3 4 3 3 7 5 4 5 4 4 4 11 4 3 5 3 2 4 6 11 7 5 4 3 5 3 11 9 9 11 13 15 8 7 5 7 12 13
30 33 33 30 27 15 7 1 6 2 6 9 10 6 15 11 3 6 7 3 4 5 1 6 6 11 8 6 7 6 7 7 5 3 4 7 9 9 14 17 10 8 5 10 11
30 33 34 31 17 4 11 11 12 16 2 7 5 4 5 6 5 8 7 3 2 4 4 6 11 6 6 9 8 4 7 6 7 4 5 9 3 4 7 7 9 7 6 6 15
30 31 34 35 3 13 8 13 11 2 4 6 2 5 3 3 3 9 12 5 2 8 5 6 11 8 7 7 7 4 8 6 10 7 5 8 4 5 8 8 9 13 8 9 11
30 31 34 23 14 5 9 22 21 4 3 3 4 5 6 8 2 3 14 3 6 6 5 8 4 4 7 8 6 10 14 14 10 9 5 8 0 6 10 10 12 14 14 12 7
31 34 32 7 9 9 17 20 9 5 2 3 5 5 5 2 4 2 4 1 2 4 2 9 5 4 8 8 5 6 4 5 3 4 2 7 6 4 10 15 16 15 8 12 11
37 32 24 10 5 7 17 4 5 3 3 5 5 5 5 5 1 5 7 4 4 2 4 8 6 5 5 5 5 7 6 3 3 3 5 7 4 12 11 20 22 23 14 16 12
38 25 10 12 6 5 8 5 2 4 6 4 5 4 7 6 5 7 6 5 5 5 1 2 7 4 2 5 6 1 7 5 5 4 6 5 6 8 16 17 23 25 24 12 13
32 15 9 2 8 6 5 3 6 5 4 8 5 5 4 5 6 6 7 8 8 8 7 3 5 4 5 4 7 4 1 7 6 3 3 4 8 6 25 6 16 22 19 17 18
26 10 7 7 7 6 4 5 5 3 6 5 1 5 8 7 6 7 8 6 6 8 6 7 3 4 7 5 2 7 4 1 3 2 4 4 2 8 25 8 15 11 12 14 14
8 4 2 15 12 5 3 6 6 8 5 5 1 2 3 4 7 8 10 4 3 3 6 3 4 8 2 5 8 2 1 4 4 5 5 0 3 7 13 15 17 16 16 10 8
6 2 2 20 2 1 3 5 4 9 15 9 3 4 5 2 4 5 11 9 5 4 6 2 5 1 4 8 5 7 7 5 5 5 1 4 1 6 10 15 18 16 16 16 15
3 4 7 9 3 4 5 6 7 10 8 6 5 6 2 2 2 4 5 2 6 5 8 4 2 4 10 6 7 5 4 5 4 3 4 4 3 1 9 13 16 18 14 15 16
3 3 4 4 1 3 5 6 5 7 7 4 7 5 2 3 5 4 3 3 3 5 6 7 3 7 6 5 4 6 10 6 7 4 5 5 7 3 9 12 16 15 15 14 11
1 4 3 3 4 5 2 4 6 7 2 7 6 5 4 3 3 6 2 4 5 6 4 6 4 4 6 5 2 5 9 8 5 5 5 6 7 8 6 13 14 13 13 13 10
2 2 5 4 4 2 2 3 4 7 6 7 3 12 3 5 3 5 7 3 6 1 4 2 3 3 2 2 4 6 10 12 6 9 8 8 4 7 7 12 13 14 15 12 9
4 5 3 4 4 3 3 4 8 9 5 6 5 4 9 4 4 4 6 5 8 9 4 5 5 3 3 2 4 5 4 5 8 5 12 6 6 6 11 13 12 13 15 9 8
Wind_Direction
357 353 353 352 349 350 348 344 341 335 331 326 323 325 331 330 326 300 242 211 161 198 159 129 161 170 154 123 172 311 90 299 294 108 142 140 132 144 118 133 148 141 115 148 139
356 353 350 350 350 349 348 345 340 332 328 324 318 318 331 331 328 267 208 181 154 148 151 160 147 203 81 106 97 124 78 264 276 52 130 143 128 132 131 143 120 121 111 130 140
353 351 350 350 347 347 346 343 340 333 329 324 320 323 327 333 294 251 186 192 209 211 191 205 259 161 96 110 159 129 224 288 305 344 299 140 140 140 134 148 150 149 144 137 144
353 350 348 347 346 346 344 343 338 333 331 331 329 327 324 355 154 157 138 187 202 216 187 195 194 121 114 143 159 169 260 273 283 19 346 161 128 152 149 161 148 143 143 139 144
354 351 348 347 346 344 344 342 337 333 334 337 343 340 359 3 253 205 184 177 185 187 208 160 103 129 204 197 136 189 248 248 255 257 230 212 144 118 123 138 139 143 152 163 167
354 351 352 348 345 343 341 343 335 331 334 343 346 343 30 314 206 200 171 158 165 178 213 192 214 131 221 241 137 184 232 282 348 359 66 131 125 120 143 142 147 156 166 178 176
357 352 351 350 345 341 341 340 333 327 328 347 350 35 51 236 252 155 147 179 177 185 169 242 273 150 141 40 264 286 80 309 301 71 43 43 98 120 143 149 156 171 183 186 179
357 353 348 347 344 341 340 338 329 320 324 338 342 67 244 290 243 197 177 187 202 215 238 267 275 113 154 185 56 319 74 56 152 230 48 44 106 121 123 158 171 188 191 191 167
354 352 347 345 343 340 340 333 317 312 303 322 21 60 275 318 222 213 198 224 219 244 248 263 70 155 31 82 44 163 246 136 124 147 78 312 234 252 44 345 187 201 203 169 160
350 350 346 343 343 338 340 328 305 255 78 8 274 331 280 232 208 215 212 232 245 117 4 87 56 47 53 101 202 207 214 162 158 161 130 166 213 271 288 289 215 203 204 169 163
348 347 346 342 341 336 341 354 16 20 159 199 198 232 270 246 197 227 220 181 205 83 167 266 85 206 223 183 230 278 196 179 97 147 127 167 168 213 230 224 225 222 216 180 171
346 346 344 340 338 332 342 51 218 310 313 240 236 248 268 235 146 266 226 147 138 192 180 12 228 234 240 235 242 268 213 113 56 191 112 178 211 191 216 225 225 173 205 200 173
343 345 342 337 337 23 328 277 311 306 44 293 214 195 231 144 187 224 132 178 110 203 193 169 240 231 228 276 283 214 193 200 159 170 32 132 305 209 227 206 213 200 200 224 184
341 342 341 337 27 333 291 336 328 181 55 281 171 261 182 138 294 212 184 142 230 203 219 216 257 232 248 248 180 238 212 167 135 76 261 193 228 225 216 202 213 206 204 202 201
338 339 336 333 303 289 324 327 340 59 47 174 214 197 164 162 236 255 183 116 234 262 56 257 277 253 235 235 181 240 164 179 170 165 144 207 1 240 156 209 228 226 221 204 215
335 333 328 326 297 281 336 332 345 50 277 227 163 154 100 232 267 122 156 349 174 243 222 237 243 201 219 248 209 143 102 48 65 155 157 225 155 254 182 209 206 231 224 188 231
331 330 315 272 233 320 338 21 50 127 334 199 182 164 158 228 188 170 173 208 179 33 323 320 283 277 243 178 351 75 66 10 5 27 216 236 150 236 207 223 195 203 220 205 201
332 330 305 263 256 302 1 53 132 246 245 238 159 131 172 185 224 200 144 198 256 115 57 215 324 162 278 168 171 176 138 150 191 184 243 108 226 251 229 232 203 187 204 221 198
335 331 291 244 193 228 71 82 210 230 334 356 57 116 252 227 179 146 196 203 212 168 182 192 277 287 224 205 116 287 54 188 111 347 48 263 302 323 356 203 180 179 181 196 173
330 331 272 176 167 118 77 231 252 270 323 337 173 162 195 226 150 157 194 220 230 190 163 224 286 243 260 129 101 144 175 112 7 179 224 301 57 328 340 336 107 92 152 159 167
340 1 297 167 176 56 167 231 286 280 312 341 240 286 159 234 198 193 199 236 144 131 122 128 103 293 68 146 182 4 25 67 127 142 163 259 293 351 4 47 77 78 73 72 49
356 353 158 165 94 180 183 216 254 291 310 292 261 201 204 262 261 244 188 186 176 158 133 193 134 322 271 291 172 159 183 143 123 267 120 156 242 314 13 46 64 57 55 66 62
337 265 291 196 178 260 275 274 259 280 279 250 240 209 207 243 311 229 130 253 163 111 159 192 37 26 340 358 9 28 314 157 126 87 181 121 219 107 66 55 55 48 36 37 47
355 334 313 35 42 128 358 287 299 290 278 314 242 110 14 281 179 199 178 172 119 115 110 88 113 146 188 195 243 308 314 260 123 103 167 200 137 105 72 79 75 60 50 24 18
172 252 238 291 334 327 276 283 318 326 319 346 310 168 147 302 299 158 219 96 38 154 75 105 140 151 201 210 300 299 315 323 173 161 134 197 179 148 175 101 101 98 73 63 353
259 6 344 286 280 314 291 265 288 320 358 319 357 331 227 151 210 216 153 171 180 210 115 31 183 139 250 281 9 310 348 30 75 117 103 142 105 132 148 122 114 108 103 71 23
290 344 107 269 318 12 243 333 336 355 309 336 305 17 352 171 149 349 186 162 172 145 132 114 122 89 249 302 29 342 82 97 62 20 139 151 185 135 95 92 102 100 99 109 190
Height
802 798 795 791 788 785 782 779 776 774 771 769 766 764 762 761 760 759 758 756 756 758 759 761 765 769 774 786 786 778 800 799 779 772 771 758 766 767 764 776 779 776 781 785 793
800 797 794 790 787 784 781 778 775 772 770 768 766 764 762 759 757 755 753 754 756 758 759 761 763 763 776 778 779 787 799 783 763 757 762 756 759 768 778 783 787 785 785 789 795
798 794 791 788 785 782 779 775 773 771 769 767 764 762 761 759 759 751 748 752 754 756 759 760 762 762 775 777 783 785 792 771 758 757 754 755 762 760 774 790 780 786 786 789 795
797 793 790 786 783 780 776 773 770 768 767 765 764 762 760 759 769 747 747 750 753 754 757 758 761 769 776 780 778 789 772 770 759 755 758 760 760 769 766 775 773 778 781 786 792
797 792 788 785 781 778 775 772 769 767 765 764 762 761 761 761 754 746 747 749 751 753 754 756 761 768 777 765 775 785 773 762 757 753 750 753 762 769 775 773 776 779 784 787 790
796 791 787 783 780 776 773 770 767 766 765 764 762 762 762 767 745 745 746 748 749 751 751 754 755 754 765 763 772 763 766 758 753 749 742 757 765 765 779 775 780 782 785 787 789
794 790 786 782 778 774 770 768 766 765 764 764 762 761 763 755 745 745 746 747 747 747 751 752 751 755 759 772 754 755 774 766 764 759 775 766 785 786 775 777 783 785 784 785 788
794 789 784 780 776 772 768 765 764 763 763 763 762 762 761 744 745 747 747 747 748 750 751 750 750 750 757 758 763 773 780 797 776 769 774 775 812 787 780 782 786 785 783 783 787
793 788 782 778 773 769 765 762 761 761 762 762 763 763 759 744 744 744 746 746 746 748 749 749 748 757 758 777 792 787 805 792 788 769 779 807 812 791 783 790 787 785 784 783 784
791 786 780 775 771 766 762 759 759 760 761 762 763 768 749 745 740 741 744 745 748 746 750 751 764 776 781 793 818 802 794 785 787 787 783 804 810 793 783 789 785 783 784 783 784
789 784 779 773 769 764 759 758 762 764 760 758 755 756 744 739 740 741 741 744 746 753 773 762 786 796 780 779 771 773 779 781 778 774 787 790 798 793 783 788 787 784 785 783 783
787 782 776 771 767 763 762 762 759 760 764 746 746 747 741 740 746 741 741 752 755 773 766 782 795 772 764 766 772 773 782 786 780 770 778 792 791 784 784 782 782 779 783 782 782
785 780 774 768 763 762 762 759 755 756 769 751 740 742 739 738 746 746 742 748 758 770 773 791 772 757 765 766 771 774 780 779 779 768 773 787 802 795 784 779 777 773 775 777 779
785 780 774 765 765 763 759 756 755 754 791 766 747 739 736 738 750 735 737 747 757 771 770 777 755 761 765 772 768 788 761 761 768 788 815 779 824 798 782 779 771 768 772 775 776
783 779 773 769 767 764 758 754 752 753 805 751 746 728 732 747 744 741 735 744 763 765 765 776 761 763 768 763 756 769 749 759 762 786 791 792 804 787 776 785 772 765 762 767 772
780 776 770 768 766 759 757 754 754 793 801 758 738 744 750 746 745 739 743 740 743 758 759 763 744 749 753 742 741 740 755 771 775 792 814 789 798 794 785 764 760 755 756 758 765
774 770 766 766 761 758 757 756 794 806 751 759 755 748 754 756 752 751 757 764 778 784 786 767 756 743 737 750 743 757 786 825 824 827 826 783 799 774 750 739 736 746 751 746 751
769 763 759 757 757 758 758 777 797 770 760 738 747 753 762 754 755 756 763 775 762 772 792 795 794 750 733 748 760 761 781 823 828 839 816 787 803 766 726 712 719 727 735 744 744
764 759 756 752 755 759 770 800 791 766 749 755 750 764 765 751 754 758 767 772 761 764 788 790 782 740 734 731 745 763 785 774 807 810 820 802 774 743 738 723 719 732 735 744 742
765 759 754 752 754 758 782 793 773 750 747 748 760 757 773 760 765 766 770 752 753 748 753 768 786 755 738 732 741 756 755 792 811 819 824 812 798 798 773 751 733 743 744 745 744
766 766 748 751 756 769 792 787 762 743 745 751 749 756 758 759 761 768 763 745 741 744 747 757 778 771 745 756 768 768 777 783 796 810 825 831 818 792 787 761 760 756 754 756 758
773 778 749 750 773 778 783 764 750 745 740 746 736 744 750 751 752 762 757 745 733 736 757 751 782 790 769 742 739 755 767 781 815 806 812 811 817 792 786 774 767 773 770 766 767
784 774 749 751 780 780 766 759 752 749 745 744 742 736 734 745 756 751 747 733 731 739 754 752 788 807 788 766 759 765 758 765 786 799 808 813 818 793 783 782 776 778 781 776 771
786 784 761 752 758 763 771 765 759 740 739 736 738 731 738 744 744 749 750 736 734 739 740 747 778 793 812 794 781 779 768 760 776 806 808 802 803 802 791 789 783 788 784 787 785
785 781 768 776 770 770 766 762 761 756 737 737 739 733 741 751 745 750 749 744 740 740 742 756 783 774 777 773 768 767 763 756 764 769 787 789 791 799 799 788 795 795 792 793 799
788 782 776 775 768 765 764 761 758 752 751 748 749 741 734 745 744 746 747 749 751 744 747 756 780 768 774 764 766 771 759 756 753 763 772 785 786 787 792 792 796 795 792 799 803
778 776 778 776 772 771 767 760 758 756 743 739 738 742 746 737 727 729 728 735 737 747 757 763 776 792 794 768 774 785 768 767 769 763 769 786 780 778 786 789 793 794 787 804 821